This demonstration page uses our WeatherBlox Daily Observations layout. Learn more.

Left ArrowRight Arrow

41.12389, -100.76542

Hourly Observations for August 11, 2022

Temp ( °F °C ) Dew Point ( °F °C ) Humidity (%) Winds ( mph kmh ) Pressure ( in mb ) Visibility ( mi km ) Precip ( " mm )
12:53 am 00:53 Clear 77 25 55 12.8 47 47 S 7 11 30.09 1019 10 16 0.00 0.00
1:53 am 01:53 Clear 75 23.9 55 12.8 50 50 SSW 3 6 30.09 1019 10 16 0.00 0.00
2:53 am 02:53 Clear 72 22.2 55 12.8 55 55 Calm 30.09 1019 10 16 0.00 0.00
3:53 am 03:53 Clear 74 23.3 54 12.2 50 50 S 5 7 30.08 1019 10 16 0.00 0.00
4:53 am 04:53 Clear 67 19.4 55 12.8 66 66 S 3 6 30.08 1019 10 16 0.00 0.00
5:53 am 05:53 Clear 64 17.8 55 12.8 73 73 Calm 30.08 1019 10 16 0.00 0.00
6:53 am 06:53 Sunny 61 16.1 55 12.8 81 81 Calm 30.10 1019 10 16 0.00 0.00
7:53 am 07:53 Sunny 65 18.3 57 13.9 76 76 Calm 30.11 1020 10 16 0.00 0.00
8:53 am 08:53 Sunny 73 22.8 57 13.9 57 57 Calm 30.11 1020 10 16 0.00 0.00
9:53 am 09:53 Sunny 79 26.1 58 14.4 49 49 WSW 5 7 30.11 1020 10 16 0.00 0.00
10:53 am 10:53 Sunny 87 30.6 59 15 39 39 SW 8 13 30.09 1019 10 16 0.00 0.00
11:53 am 11:53 Sunny 94 34.4 51 10.6 24 24 SSW 9 15 30.06 1018 10 16 0.00 0.00
12:53 pm 12:53 Sunny 96 35.6 49 9.4 20 20 S 13 20 30.05 1018 10 16 0.00 0.00
1:53 pm 13:53 Sunny 98 36.7 51 10.6 21 21 SSE 10 17 30.04 1017 10 16 0.00 0.00
2:53 pm 14:53 Sunny 98 36.7 51 10.6 21 21 SSW 13 20 30.02 1017 10 16 0.00 0.00
3:53 pm 15:53 Sunny 98 36.7 51 10.6 21 21 SSE 7 11 30.00 1016 10 16 0.00 0.00
4:53 pm 16:53 Sunny 99 37.2 54 12.2 22 22 SE 9 15 29.99 1016 10 16 0.00 0.00
5:53 pm 17:53 Mostly Sunny 98 36.7 52 11.1 21 21 SE 12 19 29.98 1015 10 16 0.00 0.00
6:53 pm 18:53 Sunny 94 34.4 54 12.2 26 26 SSE 8 13 29.98 1015 10 16 0.00 0.00
7:53 pm 19:53 Sunny 91 32.8 53 11.7 28 28 SE 9 15 29.98 1015 10 16 0.00 0.00
8:53 pm 20:53 Clear 86 30 58 14.4 39 39 SE 13 20 29.99 1016 10 16 0.00 0.00
9:53 pm 21:53 Clear 83 28.3 59 15 44 44 SE 12 19 30.01 1016 10 16 0.00 0.00
10:53 pm 22:53 Clear 80 26.7 57 13.9 45 45 SE 10 17 30.03 1017 10 16 0.00 0.00
11:53 pm 23:53 Clear 78 25.6 53 11.7 42 42 SE 9 15 30.04 1017 10 16 0.00 0.00

Powered by AerisWeather